Previsão horária em Celinnoe

Hoje, 30 Julho, Sexta-feira

Tempo Temperatura Precipitação Vento Pressão Humidade
00:00 +18°C° 0 mm 1 m/s 732 mmHg 56%
01:00 +16°C° 0 mm 1 m/s 732 mmHg 58%
02:00 +15°C° 0 mm 1 m/s 732 mmHg 61%
03:00 +13°C° 0 mm 0 m/s 732 mmHg 64%
04:00 +14°C° 0 mm 0 m/s 732 mmHg 65%
05:00 +14°C° 0 mm 0 m/s 732 mmHg 66%
06:00 +15°C° 0 mm 0 m/s 733 mmHg 67%
07:00 +19°C° 0 mm 1 m/s 733 mmHg 61%
08:00 +21°C° 0 mm 1 m/s 733 mmHg 55%
09:00 +22°C° 0 mm 1 m/s 733 mmHg 49%
10:00 +24°C° 0 mm 2 m/s 733 mmHg 46%
11:00 +25°C° 0 mm 2 m/s 734 mmHg 43%
12:00 +26°C° 0 mm 3 m/s 734 mmHg 39%
13:00 +26°C° 0 mm 3 m/s 734 mmHg 39%
14:00 +27°C° 0 mm 4 m/s 734 mmHg 38%
15:00 +27°C° 0 mm 4 m/s 734 mmHg 38%
16:00 +25°C° 0 mm 4 m/s 734 mmHg 46%
17:00 +24°C° 0 mm 3 m/s 735 mmHg 53%
18:00 +21°C° 0 mm 3 m/s 735 mmHg 61%
19:00 +20°C° 0 mm 3 m/s 735 mmHg 65%
20:00 +18°C° 0 mm 2 m/s 736 mmHg 69%
21:00 +17°C° 0 mm 2 m/s 736 mmHg 72%
22:00 +16°C° 0 mm 2 m/s 736 mmHg 74%
23:00 +15°C° 0 mm 2 m/s 737 mmHg 76%

Amanhã, 31 Julho, Sábado

Tempo Temperatura Precipitação Vento Pressão Humidade
00:00 +14°C° 0 mm 2 m/s 737 mmHg 78%
01:00 +14°C° 0 mm 2 m/s 737 mmHg 81%
02:00 +13°C° 0 mm 2 m/s 737 mmHg 83%
03:00 +13°C° 0 mm 1 m/s 737 mmHg 85%
04:00 +13°C° 0 mm 1 m/s 738 mmHg 85%
05:00 +14°C° 0 mm 1 m/s 738 mmHg 84%
06:00 +14°C° 0 mm 1 m/s 738 mmHg 84%
07:00 +18°C° 0 mm 1 m/s 738 mmHg 75%
08:00 +20°C° 0 mm 1 m/s 738 mmHg 65%
09:00 +22°C° 0 mm 1 m/s 738 mmHg 56%
10:00 +23°C° 0 mm 1 m/s 738 mmHg 50%
11:00 +25°C° 0 mm 1 m/s 738 mmHg 44%
12:00 +24°C° 0 mm 0 m/s 737 mmHg 38%
13:00 +25°C° 0 mm 0 m/s 737 mmHg 36%
14:00 +25°C° 0 mm 0 m/s 737 mmHg 34%
15:00 +25°C° 0 mm 0 m/s 736 mmHg 32%
16:00 +27°C° 0 mm 1 m/s 736 mmHg 36%
17:00 +27°C° 0 mm 1 m/s 736 mmHg 40%
18:00 +26°C° 0 mm 1 m/s 736 mmHg 43%
19:00 +24°C° 0 mm 1 m/s 736 mmHg 46%
20:00 +21°C° 0 mm 1 m/s 736 mmHg 49%
21:00 +19°C° 0 mm 1 m/s 736 mmHg 52%
22:00 +18°C° 0 mm 1 m/s 736 mmHg 53%
23:00 +18°C° 0 mm 1 m/s 736 mmHg 54%

Depois de amanhã, 1 Agosto, Domingo

Tempo Temperatura Precipitação Vento Pressão Humidade
00:00 +16°C° 0 mm 1 m/s 736 mmHg 56%
01:00 +16°C° 0 mm 1 m/s 735 mmHg 57%
02:00 +16°C° 0 mm 1 m/s 735 mmHg 57%
03:00 +16°C° 0 mm 1 m/s 735 mmHg 58%
04:00 +16°C° 0 mm 1 m/s 735 mmHg 60%
05:00 +16°C° 0 mm 1 m/s 735 mmHg 62%
06:00 +18°C° 0 mm 1 m/s 735 mmHg 63%
07:00 +20°C° 0 mm 1 m/s 735 mmHg 58%
08:00 +22°C° 0 mm 1 m/s 736 mmHg 52%
09:00 +24°C° 0 mm 1 m/s 736 mmHg 46%
10:00 +25°C° 0 mm 1 m/s 735 mmHg 42%
11:00 +27°C° 0 mm 1 m/s 735 mmHg 38%
12:00 +28°C° 0 mm 1 m/s 735 mmHg 33%
13:00 +28°C° 0 mm 1 m/s 735 mmHg 33%
14:00 +29°C° 0 mm 1 m/s 734 mmHg 32%
15:00 +29°C° 0 mm 2 m/s 734 mmHg 31%
16:00 +29°C° 0 mm 1 m/s 734 mmHg 35%
17:00 +28°C° 0 mm 1 m/s 734 mmHg 38%
18:00 +28°C° 0 mm 1 m/s 734 mmHg 42%
19:00 +26°C° 0 mm 1 m/s 734 mmHg 46%
20:00 +23°C° 0 mm 2 m/s 733 mmHg 50%
21:00 +20°C° 0 mm 2 m/s 733 mmHg 53%
22:00 +19°C° 0 mm 2 m/s 733 mmHg 57%
23:00 +18°C° 0 mm 2 m/s 733 mmHg 60%

2 Agosto, Segunda-feira

Tempo Temperatura Precipitação Vento Pressão Humidade
00:00 +18°C° 0 mm 1 m/s 733 mmHg 63%
01:00 +17°C° 0 mm 2 m/s 732 mmHg 65%
02:00 +16°C° 0 mm 2 m/s 732 mmHg 66%
03:00 +16°C° 0 mm 2 m/s 732 mmHg 67%
04:00 +18°C° 0 mm 1 m/s 732 mmHg 66%
05:00 +18°C° 0 mm 1 m/s 732 mmHg 65%
06:00 +19°C° 0 mm 1 m/s 732 mmHg 64%
07:00 +19°C° 0 mm 2 m/s 732 mmHg 61%
08:00 +20°C° 0 mm 2 m/s 732 mmHg 58%
09:00 +22°C° 0 mm 3 m/s 732 mmHg 54%
10:00 +24°C° 0 mm 3 m/s 732 mmHg 51%
11:00 +26°C° 0 mm 3 m/s 732 mmHg 48%
12:00 +27°C° 0 mm 3 m/s 731 mmHg 45%
13:00 +28°C° 0 mm 3 m/s 731 mmHg 41%
14:00 +29°C° 0 mm 3 m/s 731 mmHg 38%
15:00 +30°C° 0 mm 3 m/s 731 mmHg 35%
16:00 +29°C° 0 mm 3 m/s 731 mmHg 37%
17:00 +29°C° 0 mm 3 m/s 730 mmHg 40%
18:00 +28°C° 0 mm 3 m/s 730 mmHg 43%
19:00 +26°C° 0 mm 3 m/s 730 mmHg 45%
20:00 +25°C° 0 mm 3 m/s 730 mmHg 48%
21:00 +22°C° 0 mm 3 m/s 729 mmHg 50%
22:00 +22°C° 0 mm 3 m/s 729 mmHg 49%
23:00 +22°C° 0 mm 3 m/s 729 mmHg 49%

3 Agosto, Terça-feira

Tempo Temperatura Precipitação Vento Pressão Humidade
00:00 +22°C° 0 mm 3 m/s 729 mmHg 49%
01:00 +21°C° 0.2 mm 2 m/s 729 mmHg 60%
02:00 +19°C° 0.2 mm 2 m/s 729 mmHg 70%
03:00 +18°C° 0.2 mm 2 m/s 729 mmHg 81%
04:00 +18°C° 0.4 mm 2 m/s 729 mmHg 85%
05:00 +18°C° 0.4 mm 2 m/s 729 mmHg 89%
06:00 +17°C° 0.4 mm 2 m/s 729 mmHg 93%
07:00 +18°C° 0.5 mm 3 m/s 730 mmHg 92%
08:00 +19°C° 0.5 mm 4 m/s 730 mmHg 91%
09:00 +19°C° 0.5 mm 4 m/s 730 mmHg 90%
10:00 +21°C° 0.1 mm 4 m/s 730 mmHg 81%
11:00 +22°C° 0.1 mm 4 m/s 730 mmHg 73%
12:00 +25°C° 0.1 mm 5 m/s 730 mmHg 64%
13:00 +26°C° 0.2 mm 5 m/s 730 mmHg 61%
14:00 +26°C° 0.2 mm 5 m/s 730 mmHg 58%
15:00 +27°C° 0.2 mm 6 m/s 730 mmHg 55%
16:00 +26°C° 0.4 mm 5 m/s 730 mmHg 61%
17:00 +25°C° 0.4 mm 5 m/s 731 mmHg 66%
18:00 +23°C° 0.4 mm 4 m/s 731 mmHg 72%
19:00 +21°C° 0.5 mm 4 m/s 731 mmHg 78%
20:00 +19°C° 0.5 mm 3 m/s 731 mmHg 85%
21:00 +18°C° 0.5 mm 3 m/s 731 mmHg 91%
22:00 +17°C° 0.7 mm 2 m/s 731 mmHg 92%
23:00 +17°C° 0.7 mm 2 m/s 731 mmHg 94%

4 Agosto, Quarta-feira

Tempo Temperatura Precipitação Vento Pressão Humidade
00:00 +16°C° 0.7 mm 2 m/s 731 mmHg 96%
01:00 +16°C° 0.2 mm 2 m/s 732 mmHg 96%
02:00 +15°C° 0.2 mm 2 m/s 732 mmHg 96%
03:00 +15°C° 0.2 mm 2 m/s 732 mmHg 96%
04:00 +15°C° 0 mm 2 m/s 732 mmHg 96%
05:00 +14°C° 0 mm 2 m/s 732 mmHg 96%
06:00 +14°C° 0 mm 2 m/s 733 mmHg 96%
07:00 +16°C° 0 mm 2 m/s 733 mmHg 90%
08:00 +17°C° 0 mm 3 m/s 733 mmHg 85%
09:00 +19°C° 0 mm 3 m/s 733 mmHg 80%
10:00 +20°C° 0.1 mm 3 m/s 733 mmHg 74%
11:00 +21°C° 0.1 mm 3 m/s 733 mmHg 68%
12:00 +22°C° 0.1 mm 3 m/s 733 mmHg 61%
13:00 +24°C° 0 mm 3 m/s 733 mmHg 57%
14:00 +25°C° 0 mm 3 m/s 733 mmHg 52%
15:00 +26°C° 0 mm 3 m/s 732 mmHg 47%
16:00 +25°C° 0 mm 2 m/s 732 mmHg 50%
17:00 +25°C° 0 mm 1 m/s 732 mmHg 53%
18:00 +25°C° 0 mm 1 m/s 732 mmHg 55%
19:00 +23°C° 0 mm 1 m/s 732 mmHg 59%
20:00 +22°C° 0 mm 1 m/s 732 mmHg 64%
21:00 +20°C° 0 mm 1 m/s 732 mmHg 68%
22:00 +20°C° 0 mm 1 m/s 732 mmHg 70%
23:00 +19°C° 0 mm 1 m/s 732 mmHg 72%
Mostrar mais

Necessitamos do seu Consentimento

A Meteoprog e os seus Fornecedores de Serviços podem armazenar e aceder a dados pessoais como cookies, identificadores do dispositivo ou outras tecnologias semelhantes existentes no seu dispositivo e processar estes dados para personalizar conteúdos e anúncios, assim como funcionalidades nas redes sociais e análise de tráfego.

  • Armazenar e/ou aceder a informações no seu dispositivo

    Os cookies, identificadores do dispositivo ou outras informações podem ser armazenados ou acedidos no seu dispositivo, para os fins acima indicados.

  • Anúncios e conteúdos personalizados, medição de anúncios e conteúdos, dados sobre o público-alvo e desenvolvimento de produtos

    Os anúncios e os conteúdos podem ser personalizados com base num perfil. Podem ser adicionados dados adicionais para uma maior personalização dos anúncios e dos conteúdos. A eficácia dos anúncios e dos conteúdos pode ser medida. Podem ser obtidas informações sobre o público que visualizou os anúncios e os conteúdos. Estes dados podem ser usados para desenvolver ou melhorar sistemas, softwares ou a experiência do utilizador.

Ao clicar em "Eu concordo”, permitirá o uso de cookies, identificadores do dispositivo e web beacons mencionados ou outras tecnologias semelhantes. As configurações do navegador do seu dispositivo podem ser alteradas.

Para certos fins, podem ser invocados interesses legítimos ao invés de consentimento. Pode ler mais informação sobre este assunto na nossa Política de Privacidade e Cookies.